Time,TemperatureF,DewpointF,PressureIn,WindDirection,WindDirectionDegrees,WindSpeedMPH,WindSpeedGustMPH,Humidity,HourlyPrecipIn,Conditions,Clouds,dailyrainin,SoftwareType,DateUTC
2013-02-08 00:02:00,34.0,33.0,30.18,ENE,68,0.0,-999.0,97,-99.99,,,-99.99,,2013-02-08 05:02:00,
2013-02-08 00:12:00,34.0,33.0,30.18,ENE,68,0.0,-999.0,97,-99.99,,,-99.99,,2013-02-08 05:12:00,
2013-02-08 00:22:00,34.0,33.0,30.18,ENE,68,0.0,-999.0,97,-99.99,,,-99.99,,2013-02-08 05:22:00,
2013-02-08 00:32:00,34.0,33.0,30.18,ENE,70,0.0,-999.0,97,-99.99,,,-99.99,,2013-02-08 05:32:00,
2013-02-08 00:42:00,34.0,33.0,30.18,ENE,70,0.0,-999.0,97,-99.99,,,-99.99,,2013-02-08 05:42:00,
2013-02-08 00:52:00,34.0,33.0,30.17,ENE,70,0.0,-999.0,97,-99.99,,,-99.99,,2013-02-08 05:52:00,
2013-02-08 01:02:00,34.0,33.0,30.17,ENE,71,0.0,-999.0,97,-99.99,,,-99.99,,2013-02-08 06:02:00,
2013-02-08 01:11:00,34.0,33.0,30.17,ENE,71,0.0,-999.0,97,-99.99,,,-99.99,,2013-02-08 06:11:00,
2013-02-08 01:21:00,34.0,33.0,30.17,ENE,71,0.0,-999.0,97,-99.99,,,-99.99,,2013-02-08 06:21:00,
2013-02-08 01:32:00,34.0,33.0,30.16,ENE,71,0.0,-999.0,97,-99.99,,,-99.99,,2013-02-08 06:32:00,
2013-02-08 01:42:00,34.0,33.0,30.16,ENE,71,0.0,-999.0,97,-99.99,,,-99.99,,2013-02-08 06:42:00,
2013-02-08 01:52:00,34.0,33.0,30.16,ENE,71,0.0,-999.0,97,-99.99,,,-99.99,,2013-02-08 06:52:00,
2013-02-08 02:01:00,34.0,33.0,30.15,ENE,71,0.0,-999.0,97,-99.99,,,-99.99,,2013-02-08 07:01:00,
2013-02-08 02:11:00,34.0,33.0,30.15,ENE,71,0.0,-999.0,97,-99.99,,,-99.99,,2013-02-08 07:11:00,
2013-02-08 02:22:00,34.0,33.0,30.14,ENE,71,0.0,-999.0,97,-99.99,,,-99.99,,2013-02-08 07:22:00,
2013-02-08 02:32:00,34.0,33.0,30.13,ENE,71,0.0,-999.0,97,-99.99,,,-99.99,,2013-02-08 07:32:00,
2013-02-08 02:42:00,34.0,33.0,30.12,ENE,71,0.0,-999.0,97,-99.99,,,-99.99,,2013-02-08 07:42:00,
2013-02-08 02:52:00,34.0,33.0,30.12,ENE,71,0.0,-999.0,97,-99.99,,,-99.99,,2013-02-08 07:52:00,
2013-02-08 03:01:00,34.0,33.0,30.11,ENE,71,0.0,-999.0,97,-99.99,,,-99.99,,2013-02-08 08:01:00,
2013-02-08 03:11:00,34.0,33.0,30.11,ENE,71,0.0,-999.0,97,-99.99,,,-99.99,,2013-02-08 08:11:00,
2013-02-08 03:21:00,34.0,33.0,30.11,ENE,71,0.0,-999.0,97,-99.99,,,-99.99,,2013-02-08 08:21:00,
2013-02-08 03:32:00,34.0,33.0,30.10,ENE,71,0.0,-999.0,97,-99.99,,,-99.99,,2013-02-08 08:32:00,
2013-02-08 03:42:00,34.0,33.0,30.10,ENE,71,0.0,-999.0,97,-99.99,,,-99.99,,2013-02-08 08:42:00,
2013-02-08 03:52:00,34.0,33.0,30.10,ENE,71,0.0,-999.0,97,-99.99,,,-99.99,,2013-02-08 08:52:00,
2013-02-08 04:03:00,34.0,33.0,30.09,ENE,71,0.0,-999.0,97,-99.99,,,-99.99,,2013-02-08 09:03:00,
2013-02-08 04:11:00,34.0,33.0,30.09,ENE,71,0.0,-999.0,97,-99.99,,,-99.99,,2013-02-08 09:11:00,
2013-02-08 04:21:00,34.0,33.0,30.09,ENE,71,0.0,-999.0,97,-99.99,,,-99.99,,2013-02-08 09:21:00,
2013-02-08 04:32:00,34.0,34.0,30.08,ENE,71,0.0,-999.0,98,-99.99,,,-99.99,,2013-02-08 09:32:00,
2013-02-08 04:42:00,34.0,34.0,30.08,ENE,71,0.0,-999.0,98,-99.99,,,-99.99,,2013-02-08 09:42:00,
2013-02-08 04:52:00,34.0,34.0,30.08,ENE,71,0.0,-999.0,98,-99.99,,,-99.99,,2013-02-08 09:52:00,
2013-02-08 05:01:00,34.0,34.0,30.08,ENE,71,0.0,-999.0,98,-99.99,,,-99.99,,2013-02-08 10:01:00,
2013-02-08 05:12:00,34.0,34.0,30.08,ENE,71,0.0,-999.0,98,-99.99,,,-99.99,,2013-02-08 10:12:00,
2013-02-08 05:22:00,34.0,34.0,30.08,ENE,71,0.0,-999.0,98,-99.99,,,-99.99,,2013-02-08 10:22:00,
2013-02-08 05:32:00,34.0,34.0,30.08,ENE,71,0.0,-999.0,98,-99.99,,,-99.99,,2013-02-08 10:32:00,
2013-02-08 05:42:00,34.0,34.0,30.08,ENE,71,0.0,-999.0,98,-99.99,,,-99.99,,2013-02-08 10:42:00,
2013-02-08 05:52:00,34.0,34.0,30.07,ENE,71,0.0,-999.0,98,-99.99,,,-99.99,,2013-02-08 10:52:00,
2013-02-08 06:01:00,34.0,34.0,30.07,ENE,71,0.0,-999.0,98,-99.99,,,-99.99,,2013-02-08 11:01:00,
2013-02-08 06:11:00,34.0,34.0,30.07,ENE,71,0.0,-999.0,98,-99.99,,,-99.99,,2013-02-08 11:11:00,
2013-02-08 06:22:00,34.0,34.0,30.07,ENE,71,0.0,-999.0,98,-99.99,,,-99.99,,2013-02-08 11:22:00,
2013-02-08 06:32:00,34.0,34.0,30.07,ENE,71,0.0,-999.0,98,-99.99,,,-99.99,,2013-02-08 11:32:00,
2013-02-08 06:42:00,34.0,34.0,30.07,ENE,71,0.0,-999.0,98,-99.99,,,-99.99,,2013-02-08 11:42:00,
2013-02-08 06:52:00,34.0,34.0,30.06,ENE,71,0.0,-999.0,98,-99.99,,,-99.99,,2013-02-08 11:52:00,
2013-02-08 07:02:00,34.0,34.0,30.06,ENE,71,0.0,-999.0,98,-99.99,,,-99.99,,2013-02-08 12:02:00,
2013-02-08 07:11:00,34.0,34.0,30.06,ENE,71,0.0,-999.0,98,-99.99,,,-99.99,,2013-02-08 12:11:00,
2013-02-08 07:22:00,34.0,34.0,30.06,ENE,71,0.0,-999.0,98,-99.99,,,-99.99,,2013-02-08 12:22:00,
2013-02-08 07:33:00,34.0,34.0,30.06,ENE,71,0.0,-999.0,98,-99.99,,,-99.99,,2013-02-08 12:33:00,
2013-02-08 07:42:00,34.0,34.0,30.06,ENE,71,0.0,-999.0,98,-99.99,,,-99.99,,2013-02-08 12:42:00,
2013-02-08 07:52:00,34.0,34.0,30.06,ENE,71,1.0,-999.0,98,-99.99,,,-99.99,,2013-02-08 12:52:00,
2013-02-08 08:02:00,34.0,34.0,30.06,ENE,71,1.0,-999.0,98,-99.99,,,-99.99,,2013-02-08 13:02:00,
2013-02-08 08:12:00,34.0,34.0,30.06,ENE,71,1.0,-999.0,98,-99.99,,,-99.99,,2013-02-08 13:12:00,
2013-02-08 08:22:00,34.0,34.0,30.06,ENE,71,1.0,-999.0,98,-99.99,,,-99.99,,2013-02-08 13:22:00,
2013-02-08 08:32:00,34.0,34.0,30.06,ENE,71,0.0,-999.0,98,-99.99,,,-99.99,,2013-02-08 13:32:00,
2013-02-08 08:42:00,34.0,34.0,30.06,ENE,71,0.0,-999.0,98,-99.99,,,-99.99,,2013-02-08 13:42:00,
2013-02-08 08:52:00,35.0,34.0,30.06,ENE,71,0.0,-999.0,98,-99.99,,,-99.99,,2013-02-08 13:52:00,
2013-02-08 09:02:00,35.0,34.0,30.06,ENE,71,0.0,-999.0,98,-99.99,,,-99.99,,2013-02-08 14:02:00,
2013-02-08 09:11:00,35.0,34.0,30.06,ENE,71,0.0,-999.0,98,-99.99,,,-99.99,,2013-02-08 14:11:00,
2013-02-08 09:22:00,35.0,34.0,30.06,ENE,70,2.0,-999.0,98,-99.99,,,-99.99,,2013-02-08 14:22:00,
2013-02-08 09:32:00,35.0,34.0,30.05,ENE,70,0.0,-999.0,98,-99.99,,,-99.99,,2013-02-08 14:32:00,
2013-02-08 09:42:00,35.0,34.0,30.05,ENE,70,0.0,-999.0,98,-99.99,,,-99.99,,2013-02-08 14:42:00,
2013-02-08 09:52:00,35.0,34.0,30.05,ENE,70,0.0,-999.0,98,-99.99,,,-99.99,,2013-02-08 14:52:00,
2013-02-08 10:02:00,37.0,36.0,30.05,NE,51,1.0,-999.0,98,-99.99,,,-99.99,,2013-02-08 15:02:00,
2013-02-08 10:12:00,37.0,36.0,30.05,NE,51,1.0,-999.0,98,-99.99,,,-99.99,,2013-02-08 15:12:00,
2013-02-08 10:22:00,37.0,36.0,30.05,NE,51,0.0,-999.0,98,-99.99,,,-99.99,,2013-02-08 15:22:00,
2013-02-08 10:32:00,38.0,37.0,30.05,NE,46,1.0,-999.0,98,-99.99,,,-99.99,,2013-02-08 15:32:00,
2013-02-08 10:42:00,38.0,37.0,30.05,NE,46,1.0,-999.0,98,-99.99,,,-99.99,,2013-02-08 15:42:00,
2013-02-08 10:52:00,39.0,38.0,30.05,NNE,15,2.0,-999.0,98,-99.99,,,-99.99,,2013-02-08 15:52:00,
2013-02-08 11:02:00,40.0,40.0,30.05,NW,312,3.0,-999.0,99,-99.99,,,-99.99,,2013-02-08 16:02:00,
2013-02-08 11:11:00,40.0,40.0,30.05,NW,312,3.0,-999.0,99,-99.99,,,-99.99,,2013-02-08 16:11:00,
2013-02-08 11:22:00,41.0,41.0,30.05,WNW,290,6.0,-999.0,99,-99.99,,,-99.99,,2013-02-08 16:22:00,
2013-02-08 11:32:00,42.0,41.0,30.04,NW,320,11.0,-999.0,96,-99.99,,,-99.99,,2013-02-08 16:32:00,
2013-02-08 11:42:00,42.0,41.0,30.04,NW,320,11.0,-999.0,96,-99.99,,,-99.99,,2013-02-08 16:42:00,
2013-02-08 11:52:00,43.0,41.0,30.04,NNW,332,11.0,-999.0,94,-99.99,,,-99.99,,2013-02-08 16:52:00,
2013-02-08 12:04:00,42.0,40.0,30.03,NNW,330,13.0,-999.0,92,-99.99,,,-99.99,,2013-02-08 17:04:00,
2013-02-08 12:12:00,42.0,40.0,30.03,NNW,330,13.0,-999.0,92,-99.99,,,-99.99,,2013-02-08 17:12:00,
2013-02-08 12:23:00,41.0,39.0,30.03,NW,313,12.0,-999.0,94,-99.99,,,-99.99,,2013-02-08 17:23:00,
2013-02-08 12:33:00,41.0,40.0,30.02,WNW,300,9.0,-999.0,95,-99.99,,,-99.99,,2013-02-08 17:33:00,
2013-02-08 12:42:00,41.0,40.0,30.02,WNW,300,9.0,-999.0,95,-99.99,,,-99.99,,2013-02-08 17:42:00,
2013-02-08 12:52:00,40.0,39.0,30.02,NW,311,12.0,-999.0,95,-99.99,,,-99.99,,2013-02-08 17:52:00,
2013-02-08 13:02:00,40.0,39.0,30.02,WNW,302,10.0,-999.0,95,-99.99,,,-99.99,,2013-02-08 18:02:00,
2013-02-08 13:12:00,40.0,39.0,30.02,WNW,302,10.0,-999.0,95,-99.99,,,-99.99,,2013-02-08 18:12:00,
2013-02-08 13:25:00,40.0,38.0,30.02,NW,321,15.0,-999.0,94,-99.99,,,-99.99,,2013-02-08 18:25:00,
2013-02-08 13:35:00,41.0,39.0,30.01,WNW,283,15.0,-999.0,92,-99.99,,,-99.99,,2013-02-08 18:35:00,
2013-02-08 13:43:00,41.0,39.0,30.01,WNW,283,15.0,-999.0,92,-99.99,,,-99.99,,2013-02-08 18:43:00,
2013-02-08 13:52:00,41.0,37.0,30.02,WNW,286,15.0,-999.0,87,-99.99,,,-99.99,,2013-02-08 18:52:00,
2013-02-08 14:02:00,41.0,38.0,30.01,WNW,302,12.0,-999.0,88,-99.99,,,-99.99,,2013-02-08 19:02:00,
2013-02-08 14:12:00,41.0,38.0,30.01,WNW,302,12.0,-999.0,88,-99.99,,,-99.99,,2013-02-08 19:12:00,
2013-02-08 14:22:00,42.0,38.0,30.01,NW,316,13.0,-999.0,87,-99.99,,,-99.99,,2013-02-08 19:22:00,
2013-02-08 14:32:00,42.0,38.0,30.01,NW,321,12.0,-999.0,87,-99.99,,,-99.99,,2013-02-08 19:32:00,
2013-02-08 14:42:00,42.0,38.0,30.01,NW,321,12.0,-999.0,87,-99.99,,,-99.99,,2013-02-08 19:42:00,
2013-02-08 14:52:00,43.0,36.0,30.01,North,350,15.0,-999.0,75,-99.99,,,-99.99,,2013-02-08 19:52:00,
2013-02-08 15:02:00,44.0,33.0,30.01,WNW,294,20.0,-999.0,65,-99.99,,,-99.99,,2013-02-08 20:02:00,
2013-02-08 15:12:00,44.0,33.0,30.01,WNW,294,20.0,-999.0,65,-99.99,,,-99.99,,2013-02-08 20:12:00,
2013-02-08 15:22:00,44.0,33.0,30.02,NNE,13,13.0,-999.0,65,-99.99,,,-99.99,,2013-02-08 20:22:00,
2013-02-08 15:32:00,45.0,34.0,30.02,NW,311,12.0,-999.0,65,-99.99,,,-99.99,,2013-02-08 20:32:00,
2013-02-08 15:42:00,45.0,34.0,30.02,NW,311,12.0,-999.0,65,-99.99,,,-99.99,,2013-02-08 20:42:00,
2013-02-08 15:52:00,44.0,31.0,30.03,WNW,302,19.0,-999.0,60,-99.99,,,-99.99,,2013-02-08 20:52:00,
2013-02-08 16:02:00,44.0,31.0,30.03,NNW,327,16.0,-999.0,60,-99.99,,,-99.99,,2013-02-08 21:02:00,
2013-02-08 16:12:00,44.0,31.0,30.03,NNW,327,16.0,-999.0,60,-99.99,,,-99.99,,2013-02-08 21:12:00,
2013-02-08 16:22:00,42.0,31.0,30.04,NNW,331,17.0,-999.0,64,-99.99,,,-99.99,,2013-02-08 21:22:00,
2013-02-08 16:33:00,41.0,30.0,30.04,NW,305,17.0,-999.0,65,-99.99,,,-99.99,,2013-02-08 21:33:00,
2013-02-08 16:42:00,41.0,30.0,30.04,NW,305,17.0,-999.0,65,-99.99,,,-99.99,,2013-02-08 21:42:00,
2013-02-08 16:52:00,40.0,30.0,30.05,NNE,17,15.0,-999.0,68,-99.99,,,-99.99,,2013-02-08 21:52:00,
2013-02-08 17:02:00,39.0,30.0,30.06,NNW,329,17.0,-999.0,69,-99.99,,,-99.99,,2013-02-08 22:02:00,
2013-02-08 17:11:00,39.0,30.0,30.06,NNW,329,17.0,-999.0,69,-99.99,,,-99.99,,2013-02-08 22:11:00,
2013-02-08 17:22:00,38.0,30.0,30.07,NNW,327,16.0,-999.0,72,-99.99,,,-99.99,,2013-02-08 22:22:00,
2013-02-08 17:32:00,37.0,29.0,30.07,NNW,338,16.0,-999.0,72,-99.99,,,-99.99,,2013-02-08 22:32:00,
2013-02-08 17:42:00,37.0,29.0,30.07,NNW,338,16.0,-999.0,72,-99.99,,,-99.99,,2013-02-08 22:42:00,
2013-02-08 17:52:00,35.0,28.0,30.09,NW,323,15.0,-999.0,74,-99.99,,,-99.99,,2013-02-08 22:52:00,
2013-02-08 18:02:00,34.0,27.0,30.10,North,355,17.0,-999.0,74,-99.99,,,-99.99,,2013-02-08 23:02:00,
2013-02-08 18:11:00,34.0,27.0,30.10,North,355,17.0,-999.0,74,-99.99,,,-99.99,,2013-02-08 23:11:00,
2013-02-08 18:22:00,34.0,28.0,30.09,North,360,15.0,-999.0,77,-99.99,,,-99.99,,2013-02-08 23:22:00,
2013-02-08 18:32:00,34.0,28.0,30.11,North,5,16.0,-999.0,77,-99.99,,,-99.99,,2013-02-08 23:32:00,
2013-02-08 18:42:00,34.0,28.0,30.11,North,5,16.0,-999.0,77,-99.99,,,-99.99,,2013-02-08 23:42:00,
2013-02-08 18:52:00,33.0,27.0,30.11,NNW,342,15.0,-999.0,79,-99.99,,,-99.99,,2013-02-08 23:52:00,
2013-02-08 19:02:00,33.0,28.0,30.11,NNE,12,15.0,-999.0,80,-99.99,,,-99.99,,2013-02-09 00:02:00,
2013-02-08 19:12:00,33.0,28.0,30.11,NNE,12,15.0,-999.0,80,-99.99,,,-99.99,,2013-02-09 00:12:00,
2013-02-08 19:22:00,33.0,27.0,30.12,NE,46,18.0,-999.0,78,-99.99,,,-99.99,,2013-02-09 00:22:00,
2013-02-08 19:32:00,33.0,28.0,30.13,North,355,14.0,-999.0,80,-99.99,,,-99.99,,2013-02-09 00:32:00,
2013-02-08 19:42:00,33.0,28.0,30.13,North,355,14.0,-999.0,80,-99.99,,,-99.99,,2013-02-09 00:42:00,
2013-02-08 19:52:00,32.0,26.0,30.13,NNE,20,15.0,-999.0,78,-99.99,,,-99.99,,2013-02-09 00:52:00,
2013-02-08 20:02:00,26.0,24.0,30.13,NW,309,12.0,-999.0,92,-99.99,,,-99.99,,2013-02-09 01:02:00,
2013-02-08 20:22:00,26.0,24.0,30.13,NNW,329,11.0,-999.0,92,-99.99,,,-99.99,,2013-02-09 01:22:00,
2013-02-08 20:32:00,26.0,25.0,30.15,ENE,63,10.0,-999.0,94,-99.99,,,-99.99,,2013-02-09 01:32:00,
2013-02-08 20:52:00,25.0,24.0,30.16,NNW,345,11.0,-999.0,94,-99.99,,,-99.99,,2013-02-09 01:52:00,
2013-02-08 21:01:00,25.0,23.0,30.17,SE,124,11.0,-999.0,93,-99.99,,,-99.99,,2013-02-09 02:01:00,
2013-02-08 21:22:00,25.0,23.0,30.18,NE,54,12.0,-999.0,92,-99.99,,,-99.99,,2013-02-09 02:22:00,
2013-02-08 21:32:00,25.0,23.0,30.19,NNW,341,11.0,-999.0,92,-99.99,,,-99.99,,2013-02-09 02:32:00,
2013-02-08 21:52:00,25.0,24.0,30.19,NNW,327,11.0,-999.0,94,-99.99,,,-99.99,,2013-02-09 02:52:00,
2013-02-08 22:02:00,25.0,24.0,30.20,NE,34,10.0,-999.0,95,-99.99,,,-99.99,,2013-02-09 03:02:00,
2013-02-08 22:22:00,24.0,22.0,30.21,NNW,332,11.0,-999.0,93,-99.99,,,-99.99,,2013-02-09 03:22:00,
2013-02-08 22:32:00,24.0,22.0,30.23,WNW,301,10.0,-999.0,92,-99.99,,,-99.99,,2013-02-09 03:32:00,
2013-02-08 22:52:00,30.0,25.0,30.25,NW,314,14.0,-999.0,80,-99.99,,,-99.99,,2013-02-09 03:52:00,
2013-02-08 23:03:00,30.0,25.0,30.24,NNW,335,16.0,-999.0,80,-99.99,,,-99.99,,2013-02-09 04:03:00,
2013-02-08 23:12:00,30.0,25.0,30.24,North,360,17.0,-999.0,80,-99.99,,,-99.99,,2013-02-09 04:12:00,
2013-02-08 23:23:00,30.0,25.0,30.24,North,360,17.0,-999.0,80,-99.99,,,-99.99,,2013-02-09 04:23:00,
2013-02-08 23:32:00,30.0,25.0,30.24,NNW,337,19.0,-999.0,80,-99.99,,,-99.99,,2013-02-09 04:32:00,
2013-02-08 23:42:00,30.0,25.0,30.24,NNW,337,19.0,-999.0,80,-99.99,,,-99.99,,2013-02-09 04:42:00,
2013-02-08 23:52:00,29.0,24.0,30.25,WNW,303,18.0,-999.0,80,-99.99,,,-99.99,,2013-02-09 04:52:00,